TimeEST,TemperatureF,Dew PointF,Humidity,Sea Level PressureIn,VisibilityMPH,Wind Direction,Wind SpeedMPH,Gust SpeedMPH,PrecipitationIn,Events,Conditions,WindDirDegrees,DateUTC
12:15 AM,24.8,21.2,86,29.96,10.0,ENE,4.6,-,N/A,,Clear,70,2012-12-24 05:15:00
12:34 AM,24.8,19.4,80,29.96,10.0,East,3.5,-,N/A,,Clear,80,2012-12-24 05:34:00
12:55 AM,24.8,19.4,80,29.96,10.0,ENE,4.6,-,N/A,,Clear,70,2012-12-24 05:55:00
1:15 AM,23.0,19.4,86,29.96,10.0,East,3.5,-,N/A,,Clear,90,2012-12-24 06:15:00
1:34 AM,23.0,19.4,86,29.97,10.0,Calm,Calm,-,N/A,,Clear,0,2012-12-24 06:34:00
1:55 AM,23.0,21.2,93,29.97,10.0,Calm,Calm,-,N/A,,Clear,0,2012-12-24 06:55:00
2:15 AM,23.0,19.4,86,29.96,10.0,Calm,Calm,-,N/A,,Clear,0,2012-12-24 07:15:00
2:35 AM,23.0,19.4,86,29.96,10.0,East,3.5,-,N/A,,Clear,90,2012-12-24 07:35:00
2:55 AM,24.8,21.2,86,29.95,10.0,East,6.9,-,N/A,,Clear,90,2012-12-24 07:55:00
3:14 AM,24.8,21.2,86,29.94,10.0,East,4.6,-,N/A,,Clear,100,2012-12-24 08:14:00
3:35 AM,24.8,21.2,86,29.93,10.0,East,8.1,-,N/A,,Clear,90,2012-12-24 08:35:00
3:55 AM,24.8,21.2,86,29.92,10.0,East,6.9,-,N/A,,Clear,100,2012-12-24 08:55:00
4:15 AM,24.8,21.2,86,29.91,10.0,East,6.9,-,N/A,,Clear,90,2012-12-24 09:15:00
4:35 AM,24.8,21.2,86,29.90,10.0,East,8.1,-,N/A,,Clear,100,2012-12-24 09:35:00
4:54 AM,24.8,21.2,86,29.89,10.0,East,6.9,-,N/A,,Clear,90,2012-12-24 09:54:00
5:15 AM,24.8,21.2,86,29.88,10.0,East,6.9,-,N/A,,Clear,100,2012-12-24 10:15:00
5:35 AM,24.8,21.2,86,29.88,10.0,East,8.1,-,N/A,,Clear,90,2012-12-24 10:35:00
5:54 AM,24.8,21.2,86,29.88,10.0,East,5.8,-,N/A,,Clear,90,2012-12-24 10:54:00
6:15 AM,24.8,21.2,86,29.88,10.0,East,5.8,-,N/A,,Clear,90,2012-12-24 11:15:00
6:35 AM,24.8,21.2,86,29.87,10.0,East,6.9,-,N/A,,Clear,80,2012-12-24 11:35:00
6:54 AM,24.8,21.2,86,29.86,10.0,East,9.2,-,N/A,,Clear,90,2012-12-24 11:54:00
7:15 AM,24.8,21.2,86,29.85,10.0,East,9.2,-,N/A,,Clear,90,2012-12-24 12:15:00
7:35 AM,26.6,23.0,86,29.86,10.0,East,9.2,-,N/A,,Clear,90,2012-12-24 12:35:00
7:54 AM,26.6,23.0,86,29.86,10.0,East,4.6,-,N/A,,Clear,80,2012-12-24 12:54:00
8:15 AM,24.8,21.2,86,29.87,10.0,Calm,Calm,-,N/A,,Clear,0,2012-12-24 13:15:00
8:35 AM,24.8,23.0,93,29.87,10.0,East,3.5,-,N/A,,Clear,80,2012-12-24 13:35:00
8:55 AM,26.6,23.0,86,29.87,10.0,Calm,Calm,-,N/A,,Clear,0,2012-12-24 13:55:00
9:15 AM,26.6,24.8,93,29.85,10.0,East,9.2,-,N/A,,Clear,80,2012-12-24 14:15:00
9:35 AM,28.4,24.8,86,29.85,10.0,East,6.9,-,N/A,,Clear,100,2012-12-24 14:35:00
9:55 AM,28.4,24.8,86,29.85,10.0,East,9.2,-,N/A,,Clear,90,2012-12-24 14:55:00
10:15 AM,30.2,26.6,86,29.85,10.0,East,10.4,-,N/A,,Clear,90,2012-12-24 15:15:00
10:35 AM,30.2,26.6,86,29.85,10.0,East,9.2,-,N/A,,Clear,100,2012-12-24 15:35:00
10:55 AM,32.0,26.6,80,29.85,10.0,East,11.5,16.1,N/A,,Clear,90,2012-12-24 15:55:00
11:15 AM,32.0,26.6,80,29.86,10.0,East,8.1,-,N/A,,Mostly Cloudy,80,2012-12-24 16:15:00
11:34 AM,32.0,26.6,80,29.84,10.0,East,9.2,-,N/A,,Mostly Cloudy,80,2012-12-24 16:34:00
11:55 AM,32.0,26.6,80,29.80,10.0,East,13.8,17.3,N/A,,Scattered Clouds,100,2012-12-24 16:55:00
12:15 PM,33.8,26.6,75,29.80,10.0,East,12.7,16.1,N/A,,Scattered Clouds,90,2012-12-24 17:15:00
12:34 PM,32.0,26.6,80,29.81,10.0,ESE,6.9,-,N/A,,Mostly Cloudy,110,2012-12-24 17:34:00
12:55 PM,32.0,26.6,80,29.80,10.0,East,4.6,-,N/A,,Overcast,100,2012-12-24 17:55:00
1:15 PM,32.0,26.6,80,29.79,2.0,ENE,4.6,-,N/A,Snow,Light Snow,70,2012-12-24 18:15:00
1:34 PM,30.2,28.4,93,29.80,2.0,East,3.5,-,N/A,Snow,Light Snow,90,2012-12-24 18:34:00
1:55 PM,30.2,28.4,93,29.79,2.0,East,3.5,-,N/A,Snow,Light Snow,100,2012-12-24 18:55:00
2:15 PM,30.2,28.4,93,29.78,2.5,ESE,4.6,-,N/A,Snow,Light Snow,110,2012-12-24 19:15:00
2:34 PM,30.2,28.4,93,29.78,5.0,Calm,Calm,-,N/A,,Mostly Cloudy,0,2012-12-24 19:34:00
2:55 PM,30.2,28.4,93,29.78,5.0,East,3.5,-,N/A,,Scattered Clouds,90,2012-12-24 19:55:00
3:14 PM,30.2,28.4,93,29.79,7.0,Calm,Calm,-,N/A,,Scattered Clouds,0,2012-12-24 20:14:00
3:35 PM,30.2,28.4,93,29.80,7.0,North,3.5,-,N/A,,Mostly Cloudy,360,2012-12-24 20:35:00
3:55 PM,30.2,28.4,93,29.81,7.0,North,3.5,-,N/A,,Overcast,360,2012-12-24 20:55:00
4:14 PM,30.2,28.4,93,29.82,7.0,NNE,8.1,-,N/A,,Overcast,20,2012-12-24 21:14:00
4:35 PM,28.4,26.6,93,29.82,10.0,North,8.1,-,N/A,,Overcast,10,2012-12-24 21:35:00
4:54 PM,28.4,26.6,93,29.82,10.0,NNE,10.4,-,N/A,,Overcast,20,2012-12-24 21:54:00
5:15 PM,28.4,26.6,93,29.83,10.0,NNE,8.1,-,N/A,,Overcast,20,2012-12-24 22:15:00
5:35 PM,28.4,26.6,93,29.85,10.0,NNE,8.1,-,N/A,,Overcast,30,2012-12-24 22:35:00
5:54 PM,28.4,24.8,86,29.86,10.0,NNE,8.1,-,N/A,,Overcast,30,2012-12-24 22:54:00
6:15 PM,28.4,24.8,86,29.87,10.0,NNE,8.1,-,N/A,,Overcast,30,2012-12-24 23:15:00
6:35 PM,28.4,24.8,86,29.87,10.0,NNE,6.9,-,N/A,,Overcast,30,2012-12-24 23:35:00
6:55 PM,28.4,24.8,86,29.89,10.0,NNE,8.1,-,N/A,,Overcast,20,2012-12-24 23:55:00
7:15 PM,28.4,24.8,86,29.90,10.0,North,3.5,-,N/A,,Overcast,360,2012-12-25 00:15:00
7:34 PM,28.4,24.8,86,29.91,10.0,North,6.9,-,N/A,,Overcast,360,2012-12-25 00:34:00
7:55 PM,28.4,24.8,86,29.92,10.0,North,5.8,-,N/A,,Overcast,350,2012-12-25 00:55:00
8:15 PM,28.4,24.8,86,29.93,10.0,North,5.8,-,N/A,,Overcast,350,2012-12-25 01:15:00
8:34 PM,28.4,24.8,86,29.94,10.0,North,5.8,-,N/A,,Overcast,360,2012-12-25 01:34:00
8:55 PM,28.4,24.8,86,29.94,10.0,North,8.1,-,N/A,,Overcast,360,2012-12-25 01:55:00
9:15 PM,26.6,24.8,93,29.94,10.0,NNE,8.1,-,N/A,,Overcast,20,2012-12-25 02:15:00
9:34 PM,26.6,24.8,93,29.95,10.0,North,8.1,-,N/A,,Overcast,360,2012-12-25 02:34:00
9:55 PM,26.6,24.8,93,29.96,10.0,North,5.8,-,N/A,,Overcast,10,2012-12-25 02:55:00
10:15 PM,26.6,24.8,93,29.97,10.0,North,6.9,-,N/A,,Overcast,360,2012-12-25 03:15:00
10:34 PM,26.6,24.8,93,29.97,10.0,North,6.9,-,N/A,,Overcast,10,2012-12-25 03:34:00
10:55 PM,26.6,24.8,93,29.98,10.0,North,5.8,-,N/A,,Overcast,10,2012-12-25 03:55:00
11:15 PM,26.6,24.8,93,29.99,10.0,North,9.2,-,N/A,,Overcast,10,2012-12-25 04:15:00
11:34 PM,26.6,23.0,86,30.00,10.0,North,5.8,-,N/A,,Overcast,10,2012-12-25 04:34:00
11:55 PM,26.6,23.0,86,30.01,10.0,North,4.6,-,N/A,,Overcast,10,2012-12-25 04:55:00